AC4AG Weather Reports


Display with metric or nautical units.
time (UTC)temp
F
wind
direction
speed
MPH
gust
MPH
rain 1hr
in
rain 24hr
in
rain mn
in
humidity
%
barometer
mb
20260906031143 72 148 0.0 0.0 0.00 0.00 0.00 99 1011.9
20260906030642 72 154 0.0 0.0 0.00 0.00 0.00 99 1011.8
20260906030138 72 127 0.0 0.0 0.00 0.00 0.00 99 1011.9
20260906025637 72 120 0.0 0.0 0.00 0.00 0.00 99 1011.9
20260906025136 71 103 0.0 0.0 0.00 0.00 0.00 99 1011.8
20260906024630 71 148 0.0 0.0 0.00 0.00 0.00 99 1011.8
20260906024125 71 148 0.0 0.0 0.00 0.00 0.00 99 1011.9
20260906023621 72 139 0.0 0.0 0.00 0.00 0.00 99 1012.1
20260906023120 72 153 0.0 0.0 0.00 0.00 0.00 99 1012.0
20260906022616 72 152 0.0 0.0 0.00 0.00 0.00 99 1011.8
20260906022112 72 163 0.0 0.0 0.00 0.00 0.00 99 1011.4
20260906021607 72 125 0.0 0.0 0.00 0.00 0.00 99 1011.5
20260906021106 72 128 0.0 0.0 0.00 0.00 0.00 99 1011.5
20260906020605 72 140 0.0 0.0 0.00 0.00 0.00 99 1011.4
20260906020100 73 153 0.0 0.0 0.00 0.00 0.00 99 1011.4
20260906015600 72 99 1.0 1.0 0.00 0.00 0.00 99 1011.4
20260906015059 72 98 1.0 1.0 0.00 0.00 0.00 99 1011.2
20260906014554 72 79 1.0 2.0 0.00 0.00 0.00 99 1011.3
20260906014050 72 146 0.0 0.0 0.00 0.00 0.00 99 1011.5
20260906013545 72 148 0.0 0.0 0.00 0.00 0.00 99 1011.6
20260906013041 72 148 0.0 0.0 0.00 0.00 0.00 99 1011.5
20260906012535 72 141 0.0 0.0 0.00 0.00 0.00 99 1011.3
20260906012035 73 148 0.0 0.0 0.00 0.00 0.00 99 1011.2
20260906011531 73 149 0.0 1.0 0.00 0.00 0.00 97 1011.3
20260906011031 73 51 1.0 2.0 0.00 0.00 0.00 97 1011.2
20260906010526 73 130 0.0 0.0 0.00 0.00 0.00 97 1011.2
20260906010023 73 102 0.0 0.0 0.00 0.00 0.00 97 1011.2
20260906005521 73 123 0.0 0.0 0.00 0.00 0.00 98 1011.0
20260906005020 73 116 0.0 0.0 0.00 0.00 0.00 98 1011.2
20260906004515 73 87 1.0 2.0 0.00 0.00 0.00 98 1011.2
20260906004010 73 133 0.0 0.0 0.00 0.00 0.00 97 1011.2
20260906003505 73 135 0.0 0.0 0.00 0.00 0.00 98 1011.1
20260906003001 73 141 0.0 0.0 0.00 0.00 0.00 99 1011.1
20260906002500 73 132 0.0 0.0 0.00 0.00 0.00 99 1011.5
20260906001955 73 146 0.0 0.0 0.00 0.00 0.00 99 1011.1
20260906001451 73 167 0.0 0.0 0.00 0.00 0.00 98 1011.3
20260906000946 73 127 0.0 0.0 0.00 0.00 0.00 98 1011.1
20260906000442 73 304 1.0 2.0 0.00 0.00 0.00 98 1011.3
20260905235936 74 217 2.0 3.0 0.00 0.00 0.00 97 1011.6
20260905235436 75 154 0.0 1.0 0.00 0.00 0.00 94 1011.6
20260905234931 75 93 1.0 1.0 0.00 0.00 0.00 93 1011.7
20260905234426 75 151 0.0 2.0 0.00 0.00 0.00 92 1011.5
20260905233921 75 151 1.0 2.0 0.00 0.00 0.00 93 1011.8
20260905233416 75 144 0.0 0.0 0.00 0.00 0.00 91 1011.7
20260905232915 75 147 0.0 1.0 0.00 0.00 0.00 91 1011.7
20260905232411 75 183 1.0 1.0 0.00 0.00 0.00 90 1011.6
20260905231906 75 189 1.0 2.0 0.00 0.00 0.00 90 1011.5
20260905231402 75 211 1.0 2.0 0.00 0.00 0.00 89 1011.4
20260905230859 75 252 2.0 2.0 0.00 0.00 0.00 89 1011.2
20260905230356 75 191 1.0 2.0 0.00 0.00 0.00 88 1011.7
20260905225855 78 35 5.0 6.0 0.00 0.00 0.00 81 1011.7
20260905225350 80 325 5.0 9.0 0.00 0.00 0.00 76 1011.8
20260905224846 83 299 6.0 9.0 0.00 0.00 0.00 73 1012.2
20260905224341 87 322 9.0 15.0 0.00 0.00 0.00 68 1011.9
20260905223836 88 41 2.0 6.0 0.00 0.00 0.00 64 1011.7
20260905223334 89 331 2.0 3.0 0.00 0.00 0.00 62 1011.7
20260905222834 89 36 3.0 5.0 0.00 0.00 0.00 61 1011.0
20260905222333 90 354 1.0 3.0 0.00 0.00 0.00 61 1011.3
20260905221829 90 194 2.0 2.0 0.00 0.00 0.00 61 1011.3
20260905221326 90 33 2.0 2.0 0.00 0.00 0.00 60 1011.2
20260905220821 92 46 2.0 5.0 0.00 0.00 0.00 58 1011.3
20260905220317 92 108 0.0 3.0 0.00 0.00 0.00 57 1011.2
20260905215816 93 160 1.0 5.0 0.00 0.00 0.00 57 1011.2
20260905215312 92 171 1.0 1.0 0.00 0.00 0.00 56 1011.2
20260905214808 93 175 2.0 5.0 0.00 0.00 0.00 58 1011.0
20260905214304 93 324 2.0 3.0 0.00 0.00 0.00 58 1011.0
20260905213758 92 187 2.0 2.0 0.00 0.00 0.00 58 1011.1
20260905213255 93 163 2.0 3.0 0.00 0.00 0.00 58 1011.3
20260905212750 93 162 0.0 3.0 0.00 0.00 0.00 58 1011.1
20260905212249 93 129 0.0 1.0 0.00 0.00 0.00 58 1011.1
20260905211749 91 67 1.0 2.0 0.00 0.00 0.00 59 1011.2
20260905211244 90 178 1.0 1.0 0.00 0.00 0.00 62 1011.3
20260905210742 90 90 3.0 5.0 0.00 0.00 0.00 61 1011.3
20260905210240 91 139 2.0 5.0 0.00 0.00 0.00 60 1011.2
20260905205739 91 57 2.0 3.0 0.00 0.00 0.00 60 1011.4
20260905205234 91 231 3.0 3.0 0.00 0.00 0.00 60 1011.2
20260905204733 92 181 1.0 6.0 0.00 0.00 0.00 59 1011.2
20260905204229 92 142 2.0 6.0 0.00 0.00 0.00 59 1011.4
20260905203729 91 23 2.0 5.0 0.00 0.00 0.00 59 1011.4
20260905203224 90 242 3.0 5.0 0.00 0.00 0.00 61 1011.4
20260905202720 90 210 3.0 6.0 0.00 0.00 0.00 61 1011.6
20260905202215 91 208 5.0 7.0 0.00 0.00 0.00 61 1011.5
20260905201711 91 158 2.0 5.0 0.00 0.00 0.00 60 1011.6
20260905201210 91 259 2.0 5.0 0.00 0.00 0.00 60 1011.6
20260905200706 91 120 2.0 3.0 0.00 0.00 0.00 59 1011.8
20260905200201 90 255 4.0 5.0 0.00 0.00 0.00 61 1011.9
20260905195659 91 253 8.0 9.0 0.00 0.00 0.00 60 1012.0
20260905195154 91 273 7.0 7.0 0.00 0.00 0.00 60 1012.2
20260905194650 90 163 0.0 3.0 0.00 0.00 0.00 60 1012.0
20260905194150 90 60 5.0 6.0 0.00 0.00 0.00 61 1012.3
20260905193649 90 52 1.0 3.0 0.00 0.00 0.00 59 1012.2
20260905193144 90 41 1.0 2.0 0.00 0.00 0.00 61 1012.4
20260905192640 90 251 2.0 3.0 0.00 0.00 0.00 60 1012.4
20260905192137 89 54 3.0 5.0 0.00 0.00 0.00 61 1012.6
20260905191636 89 51 3.0 3.0 0.00 0.00 0.00 60 1012.3
20260905191134 89 214 5.0 7.0 0.00 0.00 0.00 62 1012.6
20260905190633 88 213 3.0 3.0 0.00 0.00 0.00 62 1012.6
20260905190132 88 182 3.0 6.0 0.00 0.00 0.00 63 1012.9
20260905185631 88 234 3.0 6.0 0.00 0.00 0.00 63 1012.8
20260905185126 87 148 3.0 3.0 0.00 0.00 0.00 64 1013.0
20260905184620 87 212 4.0 6.0 0.00 0.00 0.00 64 1013.1
20260905184119 88 180 3.0 5.0 0.00 0.00 0.00 64 1013.2
20260905183619 88 167 2.0 6.0 0.00 0.00 0.00 64 1013.1
20260905183114 88 147 1.0 3.0 0.00 0.00 0.00 64 1013.4
20260905182614 88 133 0.0 2.0 0.00 0.00 0.00 64 1013.5
20260905182114 87 74 3.0 3.0 0.00 0.00 0.00 64 1013.4
20260905181614 87 34 4.0 6.0 0.00 0.00 0.00 65 1013.5
20260905181113 87 92 2.0 7.0 0.00 0.00 0.00 66 1013.6
20260905180608 86 128 1.0 3.0 0.00 0.00 0.00 67 1013.9
20260905180103 86 55 4.0 6.0 0.00 0.00 0.00 66 1013.8
20260905175602 86 54 3.0 3.0 0.00 0.00 0.00 67 1013.5
20260905175058 86 58 2.0 6.0 0.00 0.00 0.00 66 1013.9
20260905174553 85 103 2.0 3.0 0.00 0.00 0.00 69 1013.6
20260905174048 86 92 3.0 5.0 0.00 0.00 0.00 68 1014.0
20260905173545 85 109 0.0 5.0 0.00 0.00 0.00 69 1014.1
20260905173040 84 51 2.0 5.0 0.00 0.00 0.00 69 1014.1
20260905172539 86 46 5.0 7.0 0.00 0.00 0.00 69 1014.2
20260905172034 85 100 2.0 5.0 0.00 0.00 0.00 68 1014.1
20260905171531 85 172 2.0 3.0 0.00 0.00 0.00 69 1014.3
20260905171026 85 59 4.0 5.0 0.00 0.00 0.00 69 1014.5
20260905170523 84 169 2.0 6.0 0.00 0.00 0.00 71 1014.4
20260905170018 85 85 2.0 6.0 0.00 0.00 0.00 69 1014.6
20260905165513 85 98 3.0 8.0 0.00 0.00 0.00 69 1014.4
20260905165008 85 156 2.0 5.0 0.00 0.00 0.00 70 1014.7
20260905164508 84 100 2.0 6.0 0.00 0.00 0.00 71 1014.4
20260905164002 83 138 2.0 5.0 0.00 0.00 0.00 74 1014.7
20260905163459 84 38 5.0 6.0 0.00 0.00 0.00 73 1015.1
20260905162954 84 118 1.0 5.0 0.00 0.00 0.00 73 1015.0
20260905162450 84 92 1.0 5.0 0.00 0.00 0.00 73 1014.9
20260905161944 84 194 4.0 5.0 0.00 0.00 0.00 73 1014.8
20260905161443 83 105 3.0 6.0 0.00 0.00 0.00 75 1014.6
20260905160942 83 56 3.0 8.0 0.00 0.00 0.00 74 1014.6
20260905160436 83 114 3.0 5.0 0.00 0.00 0.00 76 1014.9
20260905155935 82 92 3.0 3.0 0.00 0.00 0.00 78 1014.9
20260905155430 83 155 4.0 5.0 0.00 0.00 0.00 77 1015.1
20260905154929 81 111 2.0 7.0 0.00 0.00 0.00 81 1014.7
20260905154424 81 87 1.0 5.0 0.00 0.00 0.00 81 1014.6
20260905153920 82 43 5.0 8.0 0.00 0.00 0.00 78 1014.9
20260905153416 81 45 3.0 7.0 0.00 0.00 0.00 78 1014.7
20260905152916 81 144 3.0 6.0 0.00 0.00 0.00 81 1015.0
20260905152415 80 86 3.0 7.0 0.00 0.00 0.00 82 1014.9
20260905151910 80 57 3.0 8.0 0.00 0.00 0.00 83 1015.1
20260905151406 80 25 7.0 9.0 0.00 0.00 0.00 82 1015.2
20260905150901 79 32 3.0 5.0 0.00 0.00 0.00 85 1015.2
20260905150400 79 8 6.0 9.0 0.00 0.00 0.00 85 1015.2
20260905145857 79 53 9.0 10.0 0.00 0.00 0.00 84 1015.4
20260905145352 78 46 3.0 7.0 0.00 0.00 0.00 88 1015.2
20260905144851 78 14 5.0 8.0 0.00 0.00 0.00 86 1015.1
20260905144347 78 54 3.0 7.0 0.00 0.00 0.00 86 1015.2
20260905143845 79 69 10.0 11.0 0.00 0.00 0.00 85 1015.2
20260905143340 79 27 5.0 8.0 0.00 0.00 0.00 86 1015.1
20260905142839 79 50 5.0 7.0 0.00 0.00 0.00 89 1015.3
20260905142338 80 149 3.0 9.0 0.00 0.00 0.00 88 1015.2
20260905141834 80 12 5.0 8.0 0.00 0.00 0.00 89 1015.0
20260905141329 81 121 0.0 2.0 0.00 0.00 0.00 89 1014.8
20260905140825 81 40 2.0 2.0 0.00 0.00 0.00 88 1014.6
20260905140325 80 140 0.0 1.0 0.00 0.00 0.00 90 1014.5
20260905135824 80 43 2.0 2.0 0.00 0.00 0.00 90 1014.5
20260905135320 79 120 0.0 1.0 0.00 0.00 0.00 91 1014.5
20260905134815 80 162 1.0 3.0 0.00 0.00 0.00 91 1014.5
20260905134315 78 126 0.0 1.0 0.00 0.00 0.00 93 1014.6
20260905133814 77 62 2.0 3.0 0.00 0.00 0.00 96 1014.7
20260905133310 77 116 0.0 0.0 0.00 0.00 0.00 98 1014.4
20260905132809 75 139 0.0 0.0 0.00 0.00 0.00 99 1014.5
20260905132306 75 150 0.0 0.0 0.00 0.00 0.00 99 1014.7
20260905131759 75 140 0.0 0.0 0.00 0.00 0.00 99 1014.4
20260905131255 74 154 0.0 0.0 0.00 0.00 0.00 99 1014.5
20260905130755 74 180 0.0 0.0 0.00 0.00 0.00 99 1014.5
20260905130254 74 141 0.0 0.0 0.00 0.00 0.00 99 1014.7
20260905125749 74 156 0.0 0.0 0.00 0.00 0.00 99 1014.9
20260905125244 73 145 0.0 0.0 0.00 0.00 0.00 99 1014.8
20260905124741 73 147 0.0 0.0 0.00 0.00 0.00 99 1014.7
20260905124237 73 135 0.0 0.0 0.00 0.00 0.00 99 1014.7
20260905123731 73 149 0.0 0.0 0.00 0.00 0.00 99 1014.6
20260905123229 72 133 0.0 0.0 0.00 0.00 0.00 99 1014.3
20260905122728 72 125 0.0 0.0 0.00 0.00 0.00 99 1014.4
20260905122222 72 121 0.0 0.0 0.00 0.00 0.00 99 1014.5
20260905121718 72 125 0.0 0.0 0.00 0.00 0.00 99 1014.3
20260905121214 71 152 0.0 0.0 0.00 0.00 0.00 99 1014.3
20260905120713 71 152 0.0 0.0 0.00 0.00 0.00 99 1014.2
20260905120208 71 152 0.0 0.0 0.00 0.00 0.00 99 1014.3
20260905115708 71 153 0.0 0.0 0.00 0.00 0.00 99 1014.1
20260905115202 70 154 0.0 0.0 0.00 0.00 0.00 99 1014.1
20260905114702 70 154 0.0 0.0 0.00 0.00 0.00 99 1014.0
20260905114200 70 123 0.0 0.0 0.00 0.00 0.00 99 1014.0
20260905113655 70 130 0.0 0.0 0.00 0.00 0.00 99 1014.1
20260905113150 70 143 0.0 0.0 0.00 0.00 0.00 99 1014.0
20260905112650 70 143 0.0 0.0 0.00 0.00 0.00 99 1013.9
20260905112146 70 140 0.0 1.0 0.00 0.00 0.00 99 1013.9
20260905111645 70 124 0.0 1.0 0.00 0.00 0.00 99 1013.9
20260905111145 70 130 0.0 0.0 0.00 0.00 0.00 99 1014.0
20260905110644 70 125 0.0 0.0 0.00 0.00 0.00 99 1014.1
20260905110139 70 116 0.0 0.0 0.00 0.00 0.00 99 1014.0
20260905105634 70 131 0.0 0.0 0.00 0.00 0.00 99 1013.8
20260905105133 70 125 0.0 0.0 0.00 0.00 0.00 99 1013.9
20260905104629 70 125 0.0 0.0 0.00 0.00 0.00 99 1013.8
20260905104124 70 125 0.0 0.0 0.00 0.00 0.00 99 1013.6
20260905103619 70 121 0.0 0.0 0.00 0.00 0.00 99 1013.6
20260905103115 70 118 0.0 0.0 0.00 0.00 0.00 99 1013.5
20260905102611 70 116 0.0 0.0 0.00 0.00 0.00 99 1013.6
20260905102108 70 98 0.0 1.0 0.00 0.00 0.00 99 1013.6
20260905101605 71 86 1.0 2.0 0.00 0.00 0.00 99 1013.5
20260905101104 71 109 0.0 0.0 0.00 0.00 0.00 99 1013.4
20260905100600 71 124 0.0 0.0 0.00 0.00 0.00 99 1013.3
20260905100055 71 106 1.0 1.0 0.00 0.00 0.00 99 1013.3
20260905095549 71 75 0.0 0.0 0.00 0.00 0.00 99 1013.1
20260905095045 71 127 0.0 0.0 0.00 0.00 0.00 99 1013.2
20260905094540 71 127 0.0 0.0 0.00 0.00 0.00 99 1013.1
20260905094039 71 127 0.0 0.0 0.00 0.00 0.00 99 1013.4
20260905093538 71 127 0.0 0.0 0.00 0.00 0.00 99 1013.2
20260905093036 71 99 0.0 0.0 0.00 0.00 0.00 99 1013.1
20260905092535 71 92 0.0 0.0 0.00 0.00 0.00 99 1013.1
20260905092032 71 131 0.0 0.0 0.00 0.00 0.00 99 1013.0
20260905091530 71 131 0.0 0.0 0.00 0.00 0.00 99 1013.1
20260905091025 71 131 0.0 0.0 0.00 0.00 0.00 99 1013.2
20260905090524 71 131 0.0 0.0 0.00 0.00 0.00 99 1013.0
20260905090020 71 114 0.0 0.0 0.00 0.00 0.00 99 1013.1
20260905085518 71 103 0.0 0.0 0.00 0.00 0.00 99 1012.9
20260905085015 71 121 0.0 0.0 0.00 0.00 0.00 99 1012.9
20260905084509 71 126 0.0 0.0 0.00 0.00 0.00 99 1013.1
20260905084009 71 126 0.0 0.0 0.00 0.00 0.00 99 1013.0
20260905083504 71 111 0.0 0.0 0.00 0.00 0.00 99 1012.7
20260905083000 71 96 0.0 0.0 0.00 0.00 0.00 99 1012.8
20260905082455 71 145 0.0 0.0 0.00 0.00 0.00 99 1012.9
20260905081951 71 144 0.0 0.0 0.00 0.00 0.00 99 1013.0
20260905081445 71 143 0.0 0.0 0.00 0.00 0.00 99 1012.9
20260905080945 71 126 0.0 0.0 0.00 0.00 0.00 99 1013.0
20260905080439 71 139 0.0 0.0 0.00 0.00 0.00 99 1013.1
20260905075938 71 123 0.0 0.0 0.00 0.00 0.00 99 1013.2
20260905075433 71 124 0.0 0.0 0.00 0.00 0.00 99 1013.2
20260905074932 71 137 0.0 0.0 0.00 0.00 0.00 99 1013.2
20260905074428 71 131 0.0 0.0 0.00 0.00 0.00 99 1013.4
20260905073923 71 131 0.0 0.0 0.00 0.00 0.00 99 1013.4
20260905073418 71 131 0.0 0.0 0.00 0.00 0.00 99 1013.3
20260905072914 71 131 0.0 0.0 0.00 0.00 0.00 99 1013.5
20260905072409 72 129 0.0 0.0 0.00 0.00 0.00 99 1013.5
20260905071904 72 128 0.0 0.0 0.00 0.00 0.00 99 1013.5
20260905071355 72 128 0.0 0.0 0.00 0.00 0.00 99 1013.5
20260905070849 72 116 0.0 0.0 0.00 0.00 0.00 99 1013.8
20260905070345 72 134 0.0 0.0 0.00 0.00 0.00 99 1013.9
20260905065844 72 119 0.0 0.0 0.00 0.00 0.00 99 1013.8
20260905065342 72 123 0.0 0.0 0.00 0.00 0.00 99 1013.8
20260905064838 73 132 0.0 0.0 0.00 0.00 0.00 99 1013.8
20260905064334 73 132 0.0 0.0 0.00 0.00 0.00 99 1014.0
20260905063832 73 121 0.0 0.0 0.00 0.00 0.00 99 1014.0
20260905063328 73 127 0.0 0.0 0.00 0.00 0.00 99 1014.2
20260905062825 73 128 0.0 0.0 0.00 0.00 0.00 99 1014.1
20260905062319 73 128 0.0 0.0 0.00 0.00 0.00 99 1014.1
20260905061814 73 127 0.0 0.0 0.00 0.00 0.00 99 1014.1
20260905061313 73 136 0.0 0.0 0.00 0.00 0.00 99 1014.4
20260905060808 73 136 0.0 0.0 0.00 0.00 0.00 99 1014.3
20260905060305 73 128 0.0 0.0 0.00 0.00 0.00 99 1014.3
20260905055803 73 113 0.0 0.0 0.00 0.00 0.00 99 1014.4
20260905055258 73 125 0.0 0.0 0.00 0.00 0.00 99 1014.1
20260905054753 73 125 0.0 0.0 0.00 0.00 0.00 99 1014.5
20260905054250 73 116 0.0 0.0 0.00 0.00 0.00 99 1014.6
20260905053749 74 75 0.0 0.0 0.00 0.00 0.00 99 1014.3
20260905053244 74 128 0.0 0.0 0.00 0.00 0.00 99 1014.3
20260905052743 74 120 0.0 0.0 0.00 0.00 0.00 99 1014.4
20260905052238 74 117 0.0 0.0 0.00 0.00 0.00 99 1014.5
20260905051738 74 121 0.0 0.0 0.00 0.00 0.00 99 1014.3
20260905051235 74 121 0.0 0.0 0.00 0.00 0.00 99 1014.3
20260905050731 75 121 0.0 0.0 0.00 0.00 0.00 99 1014.5
20260905050228 75 121 0.0 0.0 0.00 0.00 0.00 99 1014.3
20260905045727 75 121 0.0 0.0 0.00 0.00 0.00 99 1014.4
20260905045222 75 121 0.0 0.0 0.00 0.00 0.00 99 1014.5
20260905044718 75 121 0.0 0.0 0.00 0.00 0.00 99 1014.3
20260905044214 75 121 0.0 0.0 0.00 0.00 0.00 98 1014.4
20260905043712 75 121 0.0 0.0 0.00 0.00 0.00 98 1014.5
20260905043207 76 115 0.0 1.0 0.00 0.00 0.00 99 1014.1
20260905042707 75 97 1.0 1.0 0.00 0.00 0.00 98 1014.6
20260905042206 75 125 0.0 0.0 0.00 0.00 0.00 95 1014.4
20260905041702 76 127 0.0 0.0 0.00 0.00 0.00 95 1014.3
20260905041157 76 131 0.0 0.0 0.00 0.00 0.00 94 1014.2
20260905040652 76 125 0.0 0.0 0.00 0.00 0.00 95 1014.5
20260905040151 77 100 0.0 1.0 0.00 0.00 0.00 92 1014.4
20260905035646 77 88 0.0 0.0 0.00 0.00 0.00 91 1014.2
20260905035143 77 113 0.0 0.0 0.00 0.00 0.00 91 1014.4
20260905034638 77 122 0.0 0.0 0.00 0.00 0.00 91 1014.2
20260905034137 77 123 0.0 0.0 0.00 0.00 0.00 90 1014.4
20260905033636 77 123 0.0 0.0 0.00 0.00 0.00 89 1014.2
20260905033133 77 111 0.0 0.0 0.00 0.00 0.00 88 1014.4
20260905032632 77 90 0.0 0.0 0.00 0.00 0.00 88 1014.4
20260905032132 77 108 1.0 1.0 0.00 0.00 0.00 89 1014.3
20260905031628 77 109 1.0 1.0 0.00 0.00 0.00 90 1014.3